Appleton, WI

11:36 PM CDT on October 22, 2019 (GMT -0500)
Outagamie County Regional

Weather History for KATW - August, 2019

Change the Weather History Date:

Thursday, August 29, 2019

  Actual Average Record
Temperature  
Mean Temperature 64 °F -  
Max Temperature 78 °F 77 °F 93 °F (1953)
Min Temperature 51 °F 58 °F 43 °F (1965)
Growing Degree Days 14 (Base 50)    
Moisture  
Dew Point 47 °F    
Average Humidity 62    
Maximum Humidity 82    
Minimum Humidity 31    
Precipitation  
Precipitation 0.00 in - - ()
Sea Level Pressure  
Sea Level Pressure 29.85 in    
Wind  
Wind Speed 8 mph ()    
Max Wind Speed 20 mph    
Max Gust Speed 29 mph    
Visibility 10.0 miles    
Events      
Averages and records for this station are not official NWS values.
T = Trace of Precipitation, MM = Missing Value Source: Averaged Metar Reports

Daily Weather History Graph

Daily Weather History Graph

Search for Another Location

Airport or City:

Astronomy

Aug. 29, 2019 Rise Set
Actual Time 6:13 AM CDT 7:35 PM CDT
Civil Twilight 5:43 AM CDT 8:05 PM CDT
Nautical Twilight 5:06 AM CDT 8:42 PM CDT
Astronomical Twilight 4:28 AM CDT 9:20 PM CDT
Moon 4:53 AM CDT (8/29) 7:35 PM CDT (8/29)
Length of Visible Light 14h 22m
Length of Day
13h 22m
Waning Crescent, 1% of the Moon is Illuminated
Aug 29
Waning Crescent
Aug 30
New
Sep 5
First Quarter
Sep 13
Full
Sep 21
Last Quarter

Hourly Weather History & Observations

Time (CDT) Temp. Dew Point Humidity Pressure Visibility Wind Dir Wind Speed Gust Speed Precip Events Conditions
12:15 AM 55.4 °F 44.6 °F 67% 29.90 in 10.0 mi WSW 5.8 mph - N/A   Clear
2:15 AM 53.6 °F 44.6 °F 72% 29.90 in 10.0 mi WSW 8.1 mph - N/A   Clear
2:35 AM 53.6 °F 44.6 °F 72% 29.90 in 10.0 mi WSW 8.1 mph - N/A   Clear
2:55 AM 53.6 °F 44.6 °F 72% 29.90 in 10.0 mi WSW 5.8 mph - N/A   Clear
3:15 AM 51.8 °F 44.6 °F 76% 29.89 in 10.0 mi WSW 5.8 mph - N/A   Clear
3:35 AM 51.8 °F 44.6 °F 76% 29.89 in 10.0 mi WSW 6.9 mph - N/A   Clear
3:55 AM 51.8 °F 44.6 °F 76% 29.89 in 10.0 mi WSW 8.1 mph - N/A   Clear
4:15 AM 51.8 °F 44.6 °F 76% 29.89 in 10.0 mi SW 8.1 mph - N/A   Clear
4:35 AM 51.8 °F 44.6 °F 76% 29.89 in 10.0 mi SW 6.9 mph - N/A   Clear
4:55 AM 51.8 °F 44.6 °F 76% 29.89 in 10.0 mi SW 8.1 mph - N/A   Clear
5:15 AM 51.8 °F 44.6 °F 76% 29.89 in 10.0 mi SW 9.2 mph - N/A   Clear
5:20 AM 51.8 °F 46.4 °F 82% 29.88 in 10.0 mi SW 8.1 mph - N/A   Partly Cloudy
5:45 AM 51.8 °F 46.4 °F 82% 29.89 in 10.0 mi SW 8.1 mph - N/A   Partly Cloudy
6:45 AM 53.6 °F 46.4 °F 77% 29.88 in 10.0 mi SSW 6.9 mph - N/A   Partly Cloudy
7:45 AM 57.2 °F 48.2 °F 72% 29.86 in 10.0 mi SSW 8.1 mph - N/A   Clear
8:45 AM 62.6 °F 48.2 °F 59% 29.82 in 10.0 mi SSW 11.5 mph - N/A   Clear
9:45 AM 66.2 °F 50.0 °F 56% 29.80 in 10.0 mi SSW 16.1 mph - N/A   Partly Cloudy
10:45 AM 69.8 °F 50.0 °F 49% 29.77 in 10.0 mi SSW 17.3 mph 23.0 mph N/A   Mostly Cloudy
11:45 AM 69.8 °F 51.8 °F 53% 29.74 in 10.0 mi SSW 11.5 mph 19.6 mph N/A   Mostly Cloudy
12:45 PM 75.2 °F 53.6 °F 47% 29.69 in 10.0 mi SSW 11.5 mph 19.6 mph N/A   Mostly Cloudy
1:45 PM 69.8 °F 59.0 °F 68% 29.71 in 10.0 mi West 5.8 mph - N/A   Mostly Cloudy
2:45 PM 77.0 °F 57.2 °F 50% 29.71 in 10.0 mi West 19.6 mph 28.8 mph N/A   Mostly Cloudy
3:45 PM 78.8 °F 46.4 °F 32% 29.73 in 10.0 mi WNW 17.3 mph 26.5 mph N/A   Scattered Clouds
4:45 PM 75.2 °F 42.8 °F 31% 29.74 in 10.0 mi WNW 19.6 mph 26.5 mph N/A   Scattered Clouds
5:45 PM 75.2 °F 42.8 °F 31% 29.76 in 10.0 mi WNW 16.1 mph 25.3 mph N/A   Scattered Clouds
6:45 PM 71.6 °F 44.6 °F 38% 29.78 in 10.0 mi WNW 11.5 mph 17.3 mph N/A   Scattered Clouds
7:45 PM 68.0 °F 42.8 °F 40% 29.82 in 10.0 mi WNW 10.4 mph - N/A   Clear
8:45 PM 64.4 °F 44.6 °F 49% 29.85 in 10.0 mi WNW 6.9 mph - N/A   Clear
9:45 PM 60.8 °F 46.4 °F 59% 29.88 in 10.0 mi WNW 9.2 mph - N/A   Clear
10:45 PM 57.2 °F 46.4 °F 67% 29.92 in 10.0 mi West 9.2 mph - N/A   Clear
10:55 PM 57.2 °F 44.6 °F 63% 29.92 in 10.0 mi WNW 8.1 mph - N/A   Clear
11:15 PM 57.2 °F 44.6 °F 63% 29.93 in 10.0 mi WNW 8.1 mph - N/A   Clear
11:35 PM 57.2 °F 44.6 °F 63% 29.94 in 10.0 mi WNW 9.2 mph - N/A   Clear
11:55 PM 57.2 °F 44.6 °F 63% 29.95 in 10.0 mi WNW 9.2 mph - N/A   Clear